DW6494 Weather Reports


Display with metric or nautical units.
time (UTC)temp
F
wind
direction
speed
MPH
gust
MPH
rain 1hr
in
rain 24hr
in
rain mn
in
humidity
%
barometer
mb
20260904222029 85 159 9.0 16.0 0.00 0.00 0.00 15 1015.0
20260904221529 85 171 4.0 9.0 0.00 0.00 0.00 15 1015.0
20260904221029 85 170 11.0 16.0 0.00 0.00 0.00 14 1015.0
20260904220530 85 142 7.0 11.0 0.00 0.00 0.00 16 1015.0
20260904220029 85 150 6.0 13.0 0.00 0.00 0.00 16 1015.0
20260904215530 85 145 9.0 16.0 0.00 0.00 0.00 15 1015.0
20260904215029 85 98 5.0 9.0 0.00 0.00 0.00 17 1015.0
20260904214529 85 163 7.0 13.0 0.00 0.00 0.00 17 1015.0
20260904214029 85 146 5.0 12.0 0.00 0.00 0.00 16 1015.0
20260904213529 84 138 10.0 15.0 0.00 0.00 0.00 16 1016.0
20260904213029 84 142 7.0 17.0 0.00 0.00 0.00 16 1016.0
20260904212529 84 151 13.0 22.0 0.00 0.00 0.00 15 1016.0
20260904212030 83 139 11.0 17.0 0.00 0.00 0.00 17 1016.0
20260904211529 83 158 13.0 17.0 0.00 0.00 0.00 16 1016.0
20260904211030 84 144 13.0 17.0 0.00 0.00 0.00 16 1016.0
20260904210529 83 147 10.0 18.0 0.00 0.00 0.00 16 1016.0
20260904210030 83 146 7.0 13.0 0.00 0.00 0.00 18 1016.0
20260904205529 83 144 11.0 17.0 0.00 0.00 0.00 16 1016.0
20260904205029 83 135 14.0 18.0 0.00 0.00 0.00 17 1016.0
20260904204534 82 137 7.0 10.0 0.00 0.00 0.00 19 1016.0
20260904204030 83 141 12.0 17.0 0.00 0.00 0.00 18 1016.0
20260904203529 83 148 7.0 21.0 0.00 0.00 0.00 19 1016.0
20260904203029 82 201 5.0 12.0 0.00 0.00 0.00 19 1016.0
20260904202529 82 137 12.0 21.0 0.00 0.00 0.00 19 1016.0
20260904202030 82 156 13.0 20.0 0.00 0.00 0.00 19 1016.0
20260904201529 82 142 13.0 20.0 0.00 0.00 0.00 19 1016.0
20260904201029 82 141 17.0 27.0 0.00 0.00 0.00 20 1016.0
20260904200529 82 144 6.0 13.0 0.00 0.00 0.00 21 1016.0
20260904200029 81 170 9.0 16.0 0.00 0.00 0.00 21 1016.0
20260904195530 81 142 11.0 14.0 0.00 0.00 0.00 20 1016.0
20260904195030 81 151 8.0 12.0 0.00 0.00 0.00 21 1017.0
20260904194532 81 141 12.0 19.0 0.00 0.00 0.00 21 1017.0
20260904194030 81 144 12.0 24.0 0.00 0.00 0.00 21 1017.0
20260904193529 80 149 9.0 12.0 0.00 0.00 0.00 22 1017.0
20260904193029 80 144 17.0 26.0 0.00 0.00 0.00 21 1017.0
20260904192533 80 150 7.0 14.0 0.00 0.00 0.00 24 1017.0
20260904192033 80 146 9.0 17.0 0.00 0.00 0.00 21 1017.0
20260904191530 80 142 14.0 19.0 0.00 0.00 0.00 23 1017.0
20260904191029 79 151 9.0 19.0 0.00 0.00 0.00 24 1017.0
20260904190529 79 148 13.0 18.0 0.00 0.00 0.00 24 1017.0
20260904190029 79 142 13.0 25.0 0.00 0.00 0.00 24 1017.0
20260904185529 79 143 8.0 12.0 0.00 0.00 0.00 24 1017.0
20260904185029 78 159 8.0 14.0 0.00 0.00 0.00 23 1017.0
20260904184529 78 146 14.0 19.0 0.00 0.00 0.00 24 1017.0
20260904184029 79 145 12.0 20.0 0.00 0.00 0.00 25 1018.0
20260904183530 78 148 9.0 16.0 0.00 0.00 0.00 25 1018.0
20260904183031 78 133 11.0 17.0 0.00 0.00 0.00 23 1018.0
20260904182529 78 151 11.0 19.0 0.00 0.00 0.00 26 1018.0
20260904182030 78 145 15.0 23.0 0.00 0.00 0.00 26 1018.0
20260904181529 78 154 12.0 16.0 0.00 0.00 0.00 25 1018.0
20260904181029 78 159 15.0 19.0 0.00 0.00 0.00 27 1018.0
20260904180529 78 131 13.0 17.0 0.00 0.00 0.00 27 1018.0
20260904180029 78 131 11.0 17.0 0.00 0.00 0.00 28 1018.0
20260904175529 77 146 7.0 14.0 0.00 0.00 0.00 28 1018.0
20260904175030 77 140 12.0 15.0 0.00 0.00 0.00 27 1018.0
20260904174533 77 153 10.0 16.0 0.00 0.00 0.00 28 1018.0
20260904174029 77 138 8.0 15.0 0.00 0.00 0.00 27 1018.0
20260904173529 77 150 9.0 13.0 0.00 0.00 0.00 27 1018.0
20260904173030 77 146 12.0 19.0 0.00 0.00 0.00 27 1018.0
20260904172531 76 147 6.0 17.0 0.00 0.00 0.00 28 1018.0
20260904172029 76 154 10.0 18.0 0.00 0.00 0.00 28 1018.0
20260904171531 76 150 10.0 15.0 0.00 0.00 0.00 28 1018.0
20260904171030 76 164 11.0 18.0 0.00 0.00 0.00 28 1018.0
20260904170532 76 159 11.0 18.0 0.00 0.00 0.00 27 1018.0
20260904170030 76 143 11.0 17.0 0.00 0.00 0.00 26 1018.0
20260904165529 75 162 9.0 13.0 0.00 0.00 0.00 26 1018.0
20260904165029 75 149 8.0 15.0 0.00 0.00 0.00 27 1018.0
20260904164529 74 125 8.0 12.0 0.00 0.00 0.00 27 1018.0
20260904164029 74 157 12.0 15.0 0.00 0.00 0.00 28 1018.0
20260904163529 74 153 12.0 17.0 0.00 0.00 0.00 28 1018.0
20260904163030 73 150 11.0 15.0 0.00 0.00 0.00 29 1018.0
20260904162529 73 142 6.0 10.0 0.00 0.00 0.00 30 1018.0
20260904162029 73 141 5.0 8.0 0.00 0.00 0.00 32 1018.0
20260904161531 72 152 9.0 14.0 0.00 0.00 0.00 29 1018.0
20260904161030 71 127 6.0 10.0 0.00 0.00 0.00 32 1018.0
20260904160529 71 119 7.0 9.0 0.00 0.00 0.00 34 1018.0
20260904160030 70 157 9.0 11.0 0.00 0.00 0.00 35 1018.0
20260904155531 70 156 11.0 13.0 0.00 0.00 0.00 35 1018.0
20260904155029 69 150 9.0 12.0 0.00 0.00 0.00 37 1018.0
20260904154529 69 147 12.0 15.0 0.00 0.00 0.00 41 1018.0
20260904154029 69 138 7.0 9.0 0.00 0.00 0.00 46 1018.0
20260904153531 69 136 8.0 9.0 0.00 0.00 0.00 43 1018.0
20260904153031 69 147 4.0 8.0 0.00 0.00 0.00 42 1018.0
20260904152529 69 146 6.0 7.0 0.00 0.00 0.00 40 1018.0
20260904152029 69 155 1.0 4.0 0.00 0.00 0.00 39 1018.0
20260904151530 69 146 5.0 6.0 0.00 0.00 0.00 38 1018.0
20260904151029 70 159 5.0 8.0 0.00 0.00 0.00 36 1018.0
20260904150529 71 154 3.0 4.0 0.00 0.00 0.00 32 1018.0
20260904150031 71 150 0.0 1.0 0.00 0.00 0.00 30 1018.0
20260904145530 71 360 0.0 0.0 0.00 0.00 0.00 27 1018.0
20260904145029 70 156 3.0 4.0 0.00 0.00 0.00 25 1018.0
20260904144528 70 131 3.0 4.0 0.00 0.00 0.00 25 1018.0
20260904144029 70 77 3.0 4.0 0.00 0.00 0.00 25 1018.0
20260904143530 69 162 2.0 4.0 0.00 0.00 0.00 27 1018.0
20260904143032 69 150 6.0 8.0 0.00 0.00 0.00 25 1018.0
20260904142529 69 83 0.0 1.0 0.00 0.00 0.00 27 1018.0
20260904142030 69 81 1.0 3.0 0.00 0.00 0.00 26 1018.0
20260904141529 68 183 2.0 3.0 0.00 0.00 0.00 28 1018.0
20260904141029 67 17 6.0 7.0 0.00 0.00 0.00 31 1018.0
20260904140533 65 276 3.0 4.0 0.00 0.00 0.00 29 1018.0
20260904140033 64 324 4.0 4.0 0.00 0.00 0.00 31 1018.0
20260904135530 62 7 3.0 5.0 0.00 0.00 0.00 35 1018.0
20260904135029 62 59 4.0 4.0 0.00 0.00 0.00 38 1018.0
20260904134533 61 60 3.0 4.0 0.00 0.00 0.00 37 1018.0
20260904134030 61 66 6.0 8.0 0.00 0.00 0.00 36 1017.0
20260904133529 61 68 3.0 4.0 0.00 0.00 0.00 36 1017.0
20260904133030 61 79 3.0 5.0 0.00 0.00 0.00 35 1017.0
20260904132532 61 91 0.0 3.0 0.00 0.00 0.00 33 1017.0
20260904132031 62 69 4.0 7.0 0.00 0.00 0.00 33 1017.0
20260904131529 62 138 7.0 12.0 0.00 0.00 0.00 30 1017.0
20260904131029 62 52 0.0 3.0 0.00 0.00 0.00 31 1017.0
20260904130530 62 24 1.0 4.0 0.00 0.00 0.00 31 1017.0
20260904130030 62 47 0.0 0.0 0.00 0.00 0.00 32 1017.0
20260904125531 63 360 0.0 0.0 0.00 0.00 0.00 31 1017.0
20260904125029 63 45 4.0 4.0 0.00 0.00 0.00 28 1017.0
20260904124529 64 360 0.0 0.0 0.00 0.00 0.00 29 1017.0
20260904124029 64 360 0.0 0.0 0.00 0.00 0.00 27 1017.0
20260904123531 63 360 0.0 0.0 0.00 0.00 0.00 27 1017.0
20260904123029 63 60 0.0 2.0 0.00 0.00 0.00 29 1017.0
20260904122529 63 360 0.0 0.0 0.00 0.00 0.00 26 1017.0
20260904122029 63 17 1.0 3.0 0.00 0.00 0.00 26 1017.0
20260904121529 63 20 2.0 4.0 0.00 0.00 0.00 26 1017.0
20260904121030 63 360 0.0 0.0 0.00 0.00 0.00 25 1016.0
20260904120530 63 20 3.0 4.0 0.00 0.00 0.00 27 1016.0
20260904120029 63 15 2.0 3.0 0.00 0.00 0.00 26 1016.0
20260904115529 63 34 3.0 3.0 0.00 0.00 0.00 29 1016.0
20260904115029 63 15 3.0 6.0 0.00 0.00 0.00 27 1016.0
20260904114529 64 48 2.0 3.0 0.00 0.00 0.00 25 1016.0
20260904114034 64 47 3.0 3.0 0.00 0.00 0.00 26 1016.0
20260904113529 65 32 0.0 0.0 0.00 0.00 0.00 26 1016.0
20260904113029 65 61 0.0 2.0 0.00 0.00 0.00 25 1016.0
20260904112529 65 9 2.0 5.0 0.00 0.00 0.00 24 1016.0
20260904112030 66 345 2.0 4.0 0.00 0.00 0.00 23 1016.0
20260904111529 66 19 0.0 1.0 0.00 0.00 0.00 22 1016.0
20260904111029 66 348 4.0 4.0 0.00 0.00 0.00 21 1016.0
20260904110529 66 45 0.0 0.0 0.00 0.00 0.00 21 1016.0
20260904110030 67 23 3.0 4.0 0.00 0.00 0.00 21 1016.0
20260904105529 67 13 5.0 6.0 0.00 0.00 0.00 20 1016.0
20260904105029 67 106 4.0 5.0 0.00 0.00 0.00 19 1016.0
20260904104529 68 30 4.0 7.0 0.00 0.00 0.00 19 1016.0
20260904104029 69 16 3.0 5.0 0.00 0.00 0.00 20 1016.0
20260904103529 70 47 5.0 9.0 0.00 0.00 0.00 18 1016.0
20260904103029 70 111 5.0 6.0 0.00 0.00 0.00 14 1016.0
20260904102529 70 144 6.0 9.0 0.00 0.00 0.00 14 1016.0
20260904102029 70 82 1.0 2.0 0.00 0.00 0.00 15 1015.0
20260904101529 69 169 4.0 7.0 0.00 0.00 0.00 16 1015.0
20260904101029 69 84 4.0 5.0 0.00 0.00 0.00 16 1015.0
20260904100529 70 148 7.0 9.0 0.00 0.00 0.00 17 1015.0
20260904100029 70 141 5.0 7.0 0.00 0.00 0.00 16 1015.0
20260904095530 70 137 9.0 11.0 0.00 0.00 0.00 15 1015.0
20260904095029 70 143 4.0 7.0 0.00 0.00 0.00 15 1015.0
20260904094529 70 152 6.0 11.0 0.00 0.00 0.00 16 1015.0
20260904094029 70 136 4.0 5.0 0.00 0.00 0.00 15 1015.0
20260904093530 70 143 4.0 7.0 0.00 0.00 0.00 15 1015.0
20260904093029 70 150 7.0 8.0 0.00 0.00 0.00 15 1015.0
20260904092529 69 150 4.0 9.0 0.00 0.00 0.00 16 1015.0
20260904092029 68 248 2.0 3.0 0.00 0.00 0.00 18 1015.0
20260904091529 67 58 4.0 6.0 0.00 0.00 0.00 18 1015.0
20260904091031 66 135 6.0 8.0 0.00 0.00 0.00 20 1015.0
20260904090530 66 321 1.0 3.0 0.00 0.00 0.00 25 1015.0
20260904090029 66 98 1.0 2.0 0.00 0.00 0.00 25 1015.0
20260904085530 65 20 2.0 4.0 0.00 0.00 0.00 27 1015.0
20260904085030 65 12 3.0 4.0 0.00 0.00 0.00 26 1015.0
20260904084530 65 20 4.0 6.0 0.00 0.00 0.00 28 1015.0
20260904084029 65 17 4.0 4.0 0.00 0.00 0.00 28 1015.0
20260904083529 64 17 3.0 4.0 0.00 0.00 0.00 32 1015.0
20260904083030 65 360 0.0 0.0 0.00 0.00 0.00 32 1015.0
20260904082530 65 348 3.0 4.0 0.00 0.00 0.00 30 1015.0
20260904082029 65 339 0.0 1.0 0.00 0.00 0.00 33 1015.0
20260904081532 65 349 4.0 4.0 0.00 0.00 0.00 32 1015.0
20260904081030 65 53 2.0 5.0 0.00 0.00 0.00 31 1015.0
20260904080529 65 360 0.0 1.0 0.00 0.00 0.00 32 1015.0
20260904080030 65 357 6.0 6.0 0.00 0.00 0.00 31 1015.0
20260904075529 66 356 3.0 5.0 0.00 0.00 0.00 30 1015.0
20260904075030 66 347 4.0 7.0 0.00 0.00 0.00 29 1015.0
20260904074529 66 24 4.0 5.0 0.00 0.00 0.00 29 1015.0
20260904074030 66 346 6.0 7.0 0.00 0.00 0.00 34 1015.0
20260904073529 66 350 6.0 6.0 0.00 0.00 0.00 35 1015.0
20260904073030 66 2 3.0 5.0 0.00 0.00 0.00 33 1015.0
20260904072529 66 8 4.0 6.0 0.00 0.00 0.00 35 1015.0
20260904072029 66 326 5.0 5.0 0.00 0.00 0.00 36 1015.0
20260904071529 67 9 3.0 4.0 0.00 0.00 0.00 34 1015.0
20260904071030 67 353 5.0 6.0 0.00 0.00 0.00 32 1015.0
20260904070529 67 14 6.0 7.0 0.00 0.00 0.00 33 1015.0
20260904070029 68 10 4.0 6.0 0.00 0.00 0.00 32 1015.0
20260904065529 68 336 5.0 5.0 0.00 0.00 0.00 31 1015.0
20260904065029 69 9 4.0 6.0 0.00 0.00 0.00 30 1015.0
20260904064529 69 53 3.0 4.0 0.00 0.00 0.00 28 1015.0
20260904064032 69 120 3.0 4.0 0.00 0.00 0.00 27 1014.0
20260904063529 70 148 0.0 0.0 0.00 0.00 0.00 27 1014.0
20260904063029 70 120 1.0 3.0 0.00 0.00 0.00 25 1014.0
20260904062530 71 156 1.0 4.0 0.00 0.00 0.00 23 1014.0
20260904062029 71 74 1.0 2.0 0.00 0.00 0.00 23 1014.0
20260904061529 71 101 4.0 6.0 0.00 0.00 0.00 22 1014.0
20260904061029 71 89 3.0 4.0 0.00 0.00 0.00 20 1014.0
20260904060529 71 132 4.0 5.0 0.00 0.00 0.00 20 1014.0
20260904060029 72 116 4.0 5.0 0.00 0.00 0.00 20 1014.0
20260904055530 72 136 4.0 7.0 0.00 0.00 0.00 19 1014.0
20260904055030 73 135 4.0 7.0 0.00 0.00 0.00 19 1014.0
20260904054529 73 151 7.0 9.0 0.00 0.00 0.00 18 1014.0
20260904054029 73 130 6.0 9.0 0.00 0.00 0.00 18 1014.0
20260904053530 73 148 7.0 10.0 0.00 0.00 0.00 18 1014.0
20260904053029 73 160 6.0 8.0 0.00 0.00 0.00 18 1014.0
20260904052529 74 147 4.0 8.0 0.00 0.00 0.00 17 1014.0
20260904052029 74 154 5.0 7.0 0.00 0.00 0.00 17 1017.0
20260904051529 74 144 10.0 19.0 0.00 0.00 0.00 16 1017.0
20260904051029 74 144 8.0 11.0 0.00 0.00 0.00 16 1017.0
20260904050529 74 149 5.0 7.0 0.00 0.00 0.00 17 1017.0
20260904050029 74 187 2.0 5.0 0.00 0.00 0.00 17 1017.0
20260904045529 75 360 0.0 0.0 0.00 0.00 0.00 17 1017.0
20260904045029 75 353 1.0 5.0 0.00 0.00 0.00 17 1017.0
20260904044529 76 151 4.0 8.0 0.00 0.00 0.00 16 1017.0
20260904044029 76 161 9.0 13.0 0.00 0.00 0.00 16 1017.0
20260904043532 76 151 7.0 13.0 0.00 0.00 0.00 16 1017.0
20260904043030 76 151 8.0 15.0 0.00 0.00 0.00 17 1017.0
20260904042529 75 140 6.0 9.0 0.00 0.00 0.00 19 1017.0
20260904042030 75 144 7.0 11.0 0.00 0.00 0.00 21 1017.0
20260904041529 74 158 7.0 10.0 0.00 0.00 0.00 21 1017.0
20260904041029 75 140 5.0 9.0 0.00 0.00 0.00 21 1017.0
20260904040529 75 149 9.0 13.0 0.00 0.00 0.00 20 1017.0
20260904040030 75 155 7.0 10.0 0.00 0.00 0.00 20 1017.0
20260904035532 75 152 6.0 9.0 0.00 0.00 0.00 20 1017.0
20260904035030 75 145 6.0 9.0 0.00 0.00 0.00 20 1017.0
20260904034529 75 154 8.0 13.0 0.00 0.00 0.00 21 1017.0
20260904034029 75 149 6.0 10.0 0.00 0.00 0.00 21 1017.0
20260904033530 75 129 5.0 9.0 0.00 0.00 0.00 22 1017.0
20260904033030 75 151 11.0 15.0 0.00 0.00 0.00 22 1017.0
20260904032029 74 135 8.0 12.0 0.00 0.00 0.00 24 1017.0
20260904031529 74 95 3.0 4.0 0.00 0.00 0.00 25 1016.0
20260904031029 74 133 3.0 4.0 0.00 0.00 0.00 24 1016.0
20260904030529 75 118 3.0 3.0 0.00 0.00 0.00 24 1016.0
20260904030029 75 122 4.0 6.0 0.00 0.00 0.00 23 1016.0
20260904025530 76 65 5.0 6.0 0.00 0.00 0.00 21 1016.0
20260904025032 76 130 5.0 6.0 0.00 0.00 0.00 18 1016.0
20260904024530 77 138 4.0 4.0 0.00 0.00 0.00 17 1016.0
20260904024030 77 143 7.0 9.0 0.00 0.00 0.00 16 1016.0
20260904023529 77 139 4.0 8.0 0.00 0.00 0.00 15 1016.0
20260904023030 77 162 6.0 8.0 0.00 0.00 0.00 15 1016.0
20260904022529 77 158 2.0 5.0 0.00 0.00 0.00 15 1016.0
20260904022030 77 166 4.0 9.0 0.00 0.00 0.00 15 1016.0
20260904021532 77 19 2.0 4.0 0.00 0.00 0.00 15 1016.0
20260904021030 77 147 6.0 7.0 0.00 0.00 0.00 14 1016.0
20260904020530 77 148 5.0 6.0 0.00 0.00 0.00 15 1016.0
20260904020030 78 144 0.0 1.0 0.00 0.00 0.00 15 1016.0
20260904015529 78 339 0.0 0.0 0.00 0.00 0.00 15 1016.0
20260904015029 79 3 4.0 9.0 0.00 0.00 0.00 15 1016.0
20260904014529 79 360 0.0 0.0 0.00 0.00 0.00 15 1016.0
20260904014029 80 104 0.0 0.0 0.00 0.00 0.00 14 1016.0
20260904013529 80 344 4.0 5.0 0.00 0.00 0.00 14 1016.0
20260904013029 81 57 2.0 3.0 0.00 0.00 0.00 15 1016.0
20260904012529 81 47 0.0 1.0 0.00 0.00 0.00 15 1016.0
20260904012032 81 168 1.0 3.0 0.00 0.00 0.00 16 1016.0
20260904011529 81 180 2.0 6.0 0.00 0.00 0.00 16 1016.0
20260904011031 82 29 2.0 4.0 0.00 0.00 0.00 16 1016.0
20260904010529 82 25 5.0 7.0 0.00 0.00 0.00 16 1016.0
20260904010030 82 24 0.0 0.0 0.00 0.00 0.00 16 1016.0
20260904005529 82 14 3.0 4.0 0.00 0.00 0.00 16 1016.0
20260904005030 82 146 1.0 4.0 0.00 0.00 0.00 15 1016.0
20260904004529 82 11 0.0 1.0 0.00 0.00 0.00 14 1016.0
20260904004031 82 131 4.0 7.0 0.00 0.00 0.00 13 1016.0
20260904003530 83 170 3.0 6.0 0.00 0.00 0.00 13 1016.0
20260904003029 83 167 3.0 7.0 0.00 0.00 0.00 13 1016.0
20260904002529 83 153 7.0 11.0 0.00 0.00 0.00 12 1016.0
20260904002029 83 146 10.0 22.0 0.00 0.00 0.00 12 1016.0
20260904001530 83 159 11.0 15.0 0.00 0.00 0.00 11 1016.0
20260904001030 83 159 11.0 15.0 0.00 0.00 0.00 11 1016.0
20260904000530 83 142 4.0 11.0 0.00 0.00 0.00 12 1016.0
20260904000030 83 145 6.0 10.0 0.00 0.00 0.00 12 1016.0
20260903235530 83 145 7.0 9.0 0.00 0.00 0.00 11 1016.0
20260903235031 83 144 9.0 12.0 0.00 0.00 0.00 11 1016.0
20260903234530 83 108 4.0 7.0 0.00 0.00 0.00 13 1016.0
20260903234029 83 163 8.0 15.0 0.00 0.00 0.00 12 1016.0
20260903233529 83 155 15.0 18.0 0.00 0.00 0.00 10 1016.0
20260903233031 83 157 9.0 14.0 0.00 0.00 0.00 11 1016.0
20260903232530 83 146 15.0 17.0 0.00 0.00 0.00 10 1016.0
20260903232033 83 143 11.0 16.0 0.00 0.00 0.00 11 1017.0
20260903231531 83 134 9.0 12.0 0.00 0.00 0.00 11 1017.0
20260903231030 83 143 9.0 17.0 0.00 0.00 0.00 11 1017.0
20260903230530 83 143 13.0 18.0 0.00 0.00 0.00 10 1017.0
20260903230029 83 164 9.0 14.0 0.00 0.00 0.00 11 1017.0
20260903225530 82 157 8.0 12.0 0.00 0.00 0.00 12 1017.0
20260903225030 82 146 12.0 16.0 0.00 0.00 0.00 11 1017.0
20260903224529 82 134 8.0 16.0 0.00 0.00 0.00 12 1017.0
20260903224030 82 146 13.0 19.0 0.00 0.00 0.00 11 1017.0
20260903223529 82 143 17.0 23.0 0.00 0.00 0.00 10 1017.0
20260903223029 82 138 12.0 23.0 0.00 0.00 0.00 11 1017.0
20260903222530 82 149 9.0 14.0 0.00 0.00 0.00 12 1017.0